Tracking 34794 objects as of 19-Jul-2026
HD Live streaming from Space Station
objects crossing your sky now

CZ-4 DEB

Track CZ-4 DEB now!
10-day predictions


NORAD ID: 20900
Int'l Code: 1990-081BL
Perigee: 595.6 km
Apogee: 620.7 km
Inclination: 99.0 °
Period: 96.7 minutes
Semi major axis: 6979 km
RCS: 0.0514 m2 (small)
Launch date: September 3, 1990
Source: People's Republic of China (PRC)
Launch site: Taiyaun Space Center, China (TSC)

Note: This is SATELLITE DEBRIS
Your satellite tracking list
Your tracking list is empty




NASA's NSSDC Master Catalog

Two Line Element Set (TLE):
1 20900U 90081BL  26200.20245196  .00010180  00000-0  10847-2 0  9990
2 20900  99.0350 294.1249 0017997  74.7914 315.6364 14.89016672853070
Source of the keplerian elements: AFSPC